When you browse on this site, cookies collect data to enhance your experience and personalize the content and advertising you see.
Visit our Privacy Policy to learn more. By continuing to use the site, you agree to this use of cookies and data.
  • In Austria
  • List of Countries
  • For 7 days
  • Water Temperature
  • Satellite Maps
  • Weather Map
  • News
  • Weather Widgets
  • user-avatar
    Login

    Hourly Weather Krobielewo

    Today, 21 February, Thursday

    Time Temperature Precipitation Wind Pressure Humidity
    00:00 +6°C° 0 mm 2 mps 764 mmHg 88%
    01:00 +5°C° 0 mm 2 mps 764 mmHg 92%
    02:00 +5°C° 0 mm 2 mps 764 mmHg 90%
    03:00 +4°C° 0 mm 3 mps 764 mmHg 89%
    04:00 +5°C° 0 mm 3 mps 764 mmHg 87%
    05:00 +4°C° 0 mm 3 mps 763 mmHg 87%
    06:00 +4°C° 0 mm 3 mps 763 mmHg 86%
    07:00 +4°C° 0 mm 4 mps 763 mmHg 85%
    08:00 +5°C° 0.1 mm 4 mps 763 mmHg 84%
    09:00 +5°C° 0.1 mm 4 mps 763 mmHg 82%
    10:00 +6°C° 0.1 mm 4 mps 763 mmHg 81%
    11:00 +6°C° 0.2 mm 5 mps 763 mmHg 80%
    12:00 +7°C° 0.2 mm 5 mps 763 mmHg 79%
    13:00 +7°C° 0.2 mm 6 mps 762 mmHg 78%
    14:00 +7°C° 0.2 mm 5 mps 762 mmHg 80%
    15:00 +7°C° 0.2 mm 5 mps 762 mmHg 81%
    16:00 +7°C° 0.2 mm 5 mps 762 mmHg 83%
    17:00 +7°C° 0.1 mm 5 mps 762 mmHg 85%
    18:00 +7°C° 0.1 mm 5 mps 762 mmHg 86%
    19:00 +7°C° 0.1 mm 5 mps 762 mmHg 88%
    20:00 +7°C° 0.2 mm 5 mps 762 mmHg 89%
    21:00 +7°C° 0.2 mm 4 mps 762 mmHg 90%
    22:00 +7°C° 0.2 mm 4 mps 762 mmHg 90%
    23:00 +7°C° 0.1 mm 4 mps 763 mmHg 90%

    Tomorrow, 22 February, Friday

    Time Temperature Precipitation Wind Pressure Humidity
    00:00 +7°C° 0.1 mm 5 mps 763 mmHg 90%
    01:00 +7°C° 0.1 mm 5 mps 764 mmHg 89%
    02:00 +5°C° 0.2 mm 5 mps 765 mmHg 86%
    03:00 +3°C° 0.2 mm 5 mps 766 mmHg 83%
    04:00 +2°C° 0.2 mm 6 mps 767 mmHg 80%
    05:00 +1°C° 0 mm 5 mps 768 mmHg 77%
    06:00 0°C° 0 mm 5 mps 769 mmHg 74%
    07:00 -1°C° 0 mm 5 mps 771 mmHg 72%
    08:00 -1°C° 0 mm 5 mps 772 mmHg 65%
    09:00 -1°C° 0 mm 4 mps 773 mmHg 58%
    10:00 -1°C° 0 mm 4 mps 774 mmHg 51%
    11:00 0°C° 0 mm 4 mps 775 mmHg 48%
    12:00 0°C° 0 mm 4 mps 775 mmHg 45%
    13:00 +2°C° 0 mm 3 mps 776 mmHg 42%
    14:00 +2°C° 0 mm 3 mps 776 mmHg 41%
    15:00 +2°C° 0 mm 3 mps 776 mmHg 41%
    16:00 +1°C° 0 mm 3 mps 777 mmHg 41%
    17:00 +2°C° 0 mm 2 mps 777 mmHg 45%
    18:00 +1°C° 0 mm 2 mps 778 mmHg 49%
    19:00 -1°C° 0 mm 2 mps 778 mmHg 52%
    20:00 -2°C° 0 mm 2 mps 778 mmHg 53%
    21:00 0°C° 0 mm 1 mps 779 mmHg 53%
    22:00 0°C° 0 mm 1 mps 779 mmHg 53%
    23:00 -3°C° 0 mm 2 mps 779 mmHg 52%

    Day after tomorrow, 23 February, Saturday

    Time Temperature Precipitation Wind Pressure Humidity
    00:00 -3°C° 0 mm 2 mps 779 mmHg 52%
    01:00 -3°C° 0 mm 2 mps 780 mmHg 52%
    02:00 -3°C° 0 mm 2 mps 779 mmHg 52%
    03:00 -1°C° 0 mm 1 mps 779 mmHg 51%
    04:00 -1°C° 0 mm 1 mps 779 mmHg 51%
    05:00 -1°C° 0 mm 1 mps 779 mmHg 52%
    06:00 -1°C° 0 mm 1 mps 779 mmHg 52%
    07:00 -1°C° 0 mm 1 mps 779 mmHg 52%
    08:00 0°C° 0 mm 1 mps 780 mmHg 47%
    09:00 +1°C° 0 mm 1 mps 780 mmHg 41%
    10:00 +2°C° 0 mm 1 mps 780 mmHg 35%
    11:00 +2°C° 0 mm 2 mps 780 mmHg 32%
    12:00 +3°C° 0 mm 2 mps 779 mmHg 29%
    13:00 +3°C° 0 mm 2 mps 779 mmHg 25%
    14:00 +4°C° 0 mm 1 mps 779 mmHg 26%
    15:00 +4°C° 0 mm 1 mps 778 mmHg 27%
    16:00 +5°C° 0 mm 1 mps 778 mmHg 28%
    17:00 +3°C° 0 mm 1 mps 778 mmHg 31%
    18:00 +2°C° 0 mm 1 mps 778 mmHg 34%
    19:00 +1°C° 0 mm 1 mps 778 mmHg 36%
    20:00 +1°C° 0 mm 1 mps 778 mmHg 37%
    21:00 +1°C° 0 mm 1 mps 777 mmHg 38%
    22:00 +1°C° 0 mm 1 mps 777 mmHg 38%
    23:00 +1°C° 0 mm 1 mps 777 mmHg 38%

    24 February, Sunday

    Time Temperature Precipitation Wind Pressure Humidity
    00:00 +1°C° 0 mm 1 mps 777 mmHg 39%
    01:00 +1°C° 0 mm 1 mps 777 mmHg 39%
    02:00 +1°C° 0 mm 1 mps 777 mmHg 39%
    03:00 +1°C° 0 mm 1 mps 776 mmHg 40%
    04:00 +1°C° 0 mm 1 mps 776 mmHg 40%
    05:00 +1°C° 0 mm 1 mps 776 mmHg 41%
    06:00 +1°C° 0 mm 1 mps 776 mmHg 41%
    07:00 -1°C° 0 mm 2 mps 776 mmHg 41%
    08:00 +1°C° 0 mm 2 mps 776 mmHg 39%
    09:00 +2°C° 0 mm 3 mps 776 mmHg 37%
    10:00 +3°C° 0 mm 3 mps 775 mmHg 35%
    11:00 +4°C° 0 mm 3 mps 775 mmHg 36%
    12:00 +5°C° 0 mm 3 mps 775 mmHg 38%
    13:00 +8°C° 0 mm 3 mps 775 mmHg 39%
    14:00 +8°C° 0 mm 3 mps 775 mmHg 44%
    15:00 +8°C° 0 mm 2 mps 774 mmHg 49%
    16:00 +8°C° 0 mm 2 mps 774 mmHg 54%
    17:00 +6°C° 0 mm 2 mps 774 mmHg 60%
    18:00 +5°C° 0 mm 2 mps 774 mmHg 66%
    19:00 +4°C° 0 mm 2 mps 774 mmHg 72%
    20:00 +3°C° 0 mm 2 mps 775 mmHg 74%
    21:00 +3°C° 0 mm 2 mps 775 mmHg 76%
    22:00 +2°C° 0 mm 2 mps 775 mmHg 78%
    23:00 +2°C° 0 mm 2 mps 775 mmHg 79%

    25 February, Monday

    Time Temperature Precipitation Wind Pressure Humidity
    00:00 +2°C° 0 mm 2 mps 775 mmHg 79%
    01:00 +2°C° 0 mm 2 mps 775 mmHg 80%
    02:00 +1°C° 0 mm 2 mps 775 mmHg 83%
    03:00 +1°C° 0 mm 2 mps 775 mmHg 86%
    04:00 +1°C° 0 mm 2 mps 774 mmHg 88%
    05:00 +1°C° 0 mm 2 mps 775 mmHg 90%
    06:00 +1°C° 0 mm 2 mps 775 mmHg 92%
    07:00 +2°C° 0 mm 1 mps 775 mmHg 94%
    08:00 +2°C° 0 mm 2 mps 775 mmHg 89%
    09:00 +4°C° 0 mm 2 mps 776 mmHg 84%
    10:00 +6°C° 0 mm 2 mps 776 mmHg 79%
    11:00 +7°C° 0 mm 2 mps 776 mmHg 73%
    12:00 +8°C° 0 mm 2 mps 776 mmHg 67%
    13:00 +11°C° 0 mm 1 mps 776 mmHg 61%
    14:00 +11°C° 0 mm 1 mps 775 mmHg 61%
    15:00 +10°C° 0 mm 0 mps 775 mmHg 62%
    16:00 +10°C° 0 mm 0 mps 775 mmHg 62%
    17:00 +8°C° 0 mm 0 mps 775 mmHg 68%
    18:00 +7°C° 0 mm 0 mps 775 mmHg 73%
    19:00 +6°C° 0 mm 0 mps 775 mmHg 78%
    20:00 +5°C° 0 mm 0 mps 775 mmHg 80%
    21:00 +5°C° 0 mm 0 mps 775 mmHg 82%
    22:00 +5°C° 0 mm 0 mps 775 mmHg 84%
    23:00 +5°C° 0 mm 1 mps 774 mmHg 85%

    26 February, Tuesday

    Time Temperature Precipitation Wind Pressure Humidity
    00:00 +5°C° 0 mm 1 mps 774 mmHg 87%
    01:00 +4°C° 0 mm 2 mps 774 mmHg 89%
    02:00 +4°C° 0 mm 2 mps 773 mmHg 91%
    03:00 +4°C° 0 mm 2 mps 773 mmHg 92%
    04:00 +3°C° 0 mm 2 mps 772 mmHg 93%
    05:00 +3°C° 0 mm 2 mps 772 mmHg 93%
    06:00 +3°C° 0 mm 2 mps 771 mmHg 93%
    07:00 +3°C° 0 mm 2 mps 771 mmHg 93%
    08:00 +3°C° 0 mm 3 mps 771 mmHg 84%
    09:00 +5°C° 0 mm 3 mps 771 mmHg 75%
    10:00 +6°C° 0 mm 4 mps 770 mmHg 66%
    11:00 +8°C° 0 mm 4 mps 770 mmHg 62%
    12:00 +10°C° 0 mm 4 mps 770 mmHg 57%
    13:00 +10°C° 0 mm 5 mps 769 mmHg 53%
    14:00 +10°C° 0 mm 5 mps 769 mmHg 54%
    15:00 +12°C° 0 mm 5 mps 769 mmHg 56%
    16:00 +12°C° 0 mm 5 mps 768 mmHg 58%
    17:00 +10°C° 0 mm 4 mps 768 mmHg 64%
    18:00 +9°C° 0 mm 3 mps 768 mmHg 71%
    19:00 +8°C° 0 mm 3 mps 768 mmHg 78%
    20:00 +7°C° 0 mm 3 mps 769 mmHg 82%
    21:00 +6°C° 0 mm 2 mps 769 mmHg 87%
    22:00 +5°C° 0 mm 2 mps 769 mmHg 91%
    23:00 +5°C° 0 mm 2 mps 769 mmHg 93%
    Show more